Waarnemingen

Advertentie
Mijn weer
Agen, Frankrijk (7524): temperatuur & dauwpunt: 16.11.2017 08:00:00 - 22.11.2017 08:00:00 (CET)Agen, Frankrijk (7524): temperatuur 5cm: 16.11.2017 08:00:00 - 22.11.2017 08:00:00 (CET)Agen, Frankrijk (7524): temperatuur -20cm & temperatuur -100cm: 16.11.2017 08:00:00 - 22.11.2017 08:00:00 (CET)Agen, Frankrijk (7524): windsnelheid & windstoten: 16.11.2017 08:00:00 - 22.11.2017 08:00:00 (CET)Agen, Frankrijk (7524): windrichting: 16.11.2017 08:00:00 - 22.11.2017 08:00:00 (CET)Agen, Frankrijk (7524): luchtdruk: 16.11.2017 08:00:00 - 22.11.2017 08:00:00 (CET)Agen, Frankrijk (7524): zicht: 16.11.2017 08:00:00 - 22.11.2017 08:00:00 (CET)Agen, Frankrijk (7524): Zonneschijnduur: 16.11.2017 08:00:00 - 22.11.2017 08:00:00 (CET)Agen, Frankrijk (7524): neerslag: 16.11.2017 08:00:00 - 22.11.2017 08:00:00 (CET)
Datum & Tijd tt [°C] td [°C] tt 5cm [°C] tt -20cm [°C] tt -100cm [°C] ff [km/u] ff [kn] fx [km/u] fx [kn] dd ppp [hPa] vv [km] sd [min] rr [mm]
22.11.2017 08:00:00 1,5 1,5 1,6 8,6 12,6 13 7 19 10 OZO 1014,8 0,4 0 0,0
22.11.2017 07:00:00 1,6 1,6 1,8 8,6 12,6 11 6 15 8 OZO 1015,3 0,2 0 0,0
22.11.2017 06:00:00 1,6 1,5 1,2 8,6 12,6 9 5 16 8 O 1015,7 0,4 0 0,0
22.11.2017 05:00:00 1,7 1,6 1,2 8,7 12,6 5 3 14 8 O 1016,4 0,1 0 0,0
22.11.2017 04:00:00 1,6 1,5 1,4 8,7 12,7 11 6 18 10 OZO 1016,3 0,4 0 0,0
22.11.2017 03:00:00 2,1 2,0 0,1 8,7 12,6 9 5 18 10 O 1017,0 0,4 0 0,0
22.11.2017 02:00:00 1,6 1,5 0,0 8,8 12,7 5 3 8 4 O 1017,5 0,1 0 0,0
22.11.2017 01:00:00 2,0 1,9 -0,5 8,8 12,7 4 2 7 4 - 1018,3 0,3 0 0,0
22.11.2017 00:00:00 2,7 2,6 -0,5 8,9 12,7 3 2 5 3 O 1018,3 0,1 0 0,0
21.11.2017 23:00:00 2,9 2,6 -0,4 8,9 12,7 0 0 9 5 N 1018,5 0,2 0 0,0
21.11.2017 22:00:00 2,5 2,2 -3,1 8,9 12,7 5 3 8 5 O 1018,4 0,2 0 0,0
21.11.2017 21:00:00 3,0 2,6 -3,0 9,0 12,7 5 3 5 3 OZO 1018,8 0,5 0 0,0
21.11.2017 20:00:00 3,7 3,3 -2,2 9,0 12,7 3 1 4 2 Z 1019,1 0,5 0 0,0
21.11.2017 19:00:00 4,4 3,7 -1,9 8,9 12,7 2 1 5 3 - 1019,4 3,8 0 0,0
21.11.2017 18:00:00 6,8 5,6 -0,3 8,9 12,7 0 0 4 2 N 1019,3 7 7 0,0
21.11.2017 17:00:00 9,1 7,2 7,2 8,8 12,7 2 1 9 5 OZO 1019,6 14 60 0,0
21.11.2017 16:00:00 9,7 7,6 11,5 8,8 12,7 5 3 11 6 O 1019,7 10 60 0,0
21.11.2017 15:00:00 8,7 8,6 13,6 8,7 12,7 9 5 16 9 O 1020,2 10 60 0,0
21.11.2017 14:00:00 7,4 7,4 11,5 8,7 12,8 11 6 15 8 O 1020,9 9 19 0,0
21.11.2017 13:00:00 5,6 5,6 9,1 8,7 12,7 9 5 18 10 O 1022,0 5 0 0,0
21.11.2017 12:00:00 4,9 4,9 7,5 8,7 12,8 11 6 16 9 OZO 1022,5 4,0 0 0,0
21.11.2017 11:00:00 4,2 4,2 5,5 8,7 12,8 9 5 19 11 OZO 1023,2 0,7 0 0,0
21.11.2017 10:00:00 3,3 3,3 4,2 8,8 12,8 13 7 22 12 OZO 1022,8 0,3 0 0,0
21.11.2017 09:00:00 3,0 3,0 3,5 8,7 12,8 13 7 21 11 OZO 1022,6 0,3 0 0,0
21.11.2017 08:00:00 3,0 3,0 3,3 8,8 12,8 9 5 17 9 OZO 1022,2 0,4 0 0,0
21.11.2017 07:00:00 2,9 2,9 3,4 8,8 12,8 12 7 18 10 ZO 1022,1 0,2 0 0,0
21.11.2017 06:00:00 3,6 3,6 3,9 8,8 12,8 13 7 21 11 O 1022,0 0,5 0 0,0
21.11.2017 05:00:00 3,8 3,8 4,0 8,8 12,8 13 7 18 10 O 1022,1 0,5 0 0,0
21.11.2017 04:00:00 3,8 3,8 3,8 8,8 12,8 9 5 15 8 OZO 1022,4 0,6 0 0,0
21.11.2017 03:00:00 3,5 3,4 3,8 8,8 12,8 9 5 13 7 ZO 1022,6 0,8 0 0,0
21.11.2017 02:00:00 4,0 3,9 4,2 8,8 12,8 8 4 16 9 ZO 1022,7 0,5 0 0,0
21.11.2017 01:00:00 4,2 4,1 4,4 8,8 12,9 13 7 17 9 OZO 1023,0 0,4 0 0,0
21.11.2017 00:00:00 4,5 4,4 4,6 8,8 12,9 6 3 13 7 ZO 1023,4 0,1 0 0,0
20.11.2017 23:00:00 4,6 4,5 4,8 8,8 12,8 9 5 19 10 ZO 1023,3 0,4 0 0,0
20.11.2017 22:00:00 4,7 4,6 5,0 8,8 12,9 9 5 14 7 OZO 1023,5 0,6 0 0,0
20.11.2017 21:00:00 5,2 5,1 5,5 8,7 12,9 9 5 13 7 OZO 1023,9 0,7 0 0,0
20.11.2017 20:00:00 5,6 5,3 5,7 8,7 12,9 7 4 12 7 ZO 1023,9 0,2 0 0,0
20.11.2017 19:00:00 5,9 5,5 6,1 8,7 12,9 5 3 11 6 O 1023,8 1,4 0 0,0
20.11.2017 18:00:00 6,1 5,5 6,2 8,6 12,9 8 4 12 7 ZZO 1023,8 4,8 0 0,0
20.11.2017 17:00:00 6,3 5,7 7,0 8,6 12,9 8 4 15 8 OZO 1023,9 6 0 0,0
20.11.2017 16:00:00 6,9 6,2 9,2 8,5 12,9 9 5 19 11 ZO 1024,0 8 0 0,0
20.11.2017 15:00:00 7,3 6,6 10,6 8,5 12,9 11 6 17 9 ZO 1024,3 10 0 0,0
20.11.2017 14:00:00 7,3 7,0 11,1 8,4 12,9 8 4 14 8 ZO 1025,0 10 0 0,0
20.11.2017 13:00:00 7,0 6,9 9,8 8,4 12,9 9 5 16 9 OZO 1025,9 9 0 0,0
20.11.2017 12:00:00 5,5 5,4 7,3 8,4 13,0 4 2 11 6 - 1026,9 1,1 0 0,0
20.11.2017 11:00:00 4,5 4,4 5,6 8,4 13,0 8 4 14 8 O 1026,9 0,7 0 0,0
20.11.2017 10:00:00 3,7 3,6 4,3 8,4 13,0 9 5 14 7 O 1026,4 0,9 0 0,0
20.11.2017 09:00:00 3,0 2,9 0,4 8,4 13,0 8 4 13 7 OZO 1026,4 5 0 0,0
20.11.2017 08:00:00 1,3 1,2 -1,9 8,4 13,0 5 3 9 5 O 1026,3 3,9 0 0,0
20.11.2017 07:00:00 1,5 1,2 0,1 8,5 13,0 5 3 10 6 - 1026,0 4,9 0 0,0
20.11.2017 06:00:00 1,8 1,7 2,1 8,5 13,0 8 4 12 6 OZO 1026,0 4,7 0 0,0
20.11.2017 05:00:00 1,2 1,1 0,4 8,5 13,0 4 2 8 4 - 1025,9 4,2 0 0,0
20.11.2017 04:00:00 0,3 0,0 -0,2 8,6 13,0 2 1 7 4 - 1026,3 0,4 0 0,0
20.11.2017 03:00:00 0,1 -0,2 -2,0 8,6 13,0 4 2 6 3 OZO 1026,5 0,3 0 0,0
20.11.2017 02:00:00 0,0 -0,3 -2,4 8,7 13,0 4 2 8 4 O 1026,7 0,3 0 0,0
20.11.2017 01:00:00 0,1 -0,3 -4,5 8,7 13,0 4 2 6 3 OZO 1027,5 0,2 0 0,0
20.11.2017 00:00:00 0,1 -0,3 -4,2 8,8 13,1 0 0 3 2 N 1027,4 3,3 0 0,0
19.11.2017 23:00:00 0,2 -0,4 -4,2 8,8 13,1 0 0 3 2 N 1027,5 0,7 0 0,0
19.11.2017 22:00:00 0,6 -0,1 -4,1 8,9 13,1 2 1 4 2 O 1027,4 3,2 0 0,0
19.11.2017 21:00:00 1,1 0,4 -4,0 8,9 13,1 0 0 0 0 N 1027,1 5 0 0,0
19.11.2017 20:00:00 1,8 0,8 -3,6 8,9 13,1 0 0 4 2 N 1026,5 4,7 0 0,0
19.11.2017 19:00:00 2,8 1,3 -2,9 8,8 13,1 0 0 5 3 N 1026,3 4,9 0 0,0
19.11.2017 18:00:00 6,0 3,7 -0,8 8,8 13,1 4 2 7 4 WZW 1026,2 10 8 0,0
19.11.2017 17:00:00 8,5 4,9 5,4 8,7 13,1 4 2 9 5 - 1025,7 10 60 0,0
19.11.2017 16:00:00 9,5 5,3 11,4 8,6 13,1 4 2 6 3 - 1025,6 10 60 0,0
19.11.2017 15:00:00 8,0 6,8 17,2 8,6 13,1 3 2 8 4 NNW 1025,9 15 60 0,0
19.11.2017 14:00:00 5,3 5,2 8,9 8,6 13,2 2 1 5 3 - 1026,5 9 34 0,0
19.11.2017 13:00:00 3,2 3,1 7,3 8,6 13,2 0 0 6 3 N 1027,3 3,1 0 0,0
19.11.2017 12:00:00 2,1 2,0 5,1 8,6 13,2 0 0 5 3 N 1027,7 0,9 0 0,0
19.11.2017 11:00:00 0,9 0,8 2,8 8,6 13,2 3 2 8 4 O 1027,6 0,3 0 0,0
19.11.2017 10:00:00 0,2 0,1 1,0 8,6 13,2 2 1 6 3 - 1027,2 0,3 0 0,0
19.11.2017 09:00:00 -0,2 -0,3 0,1 8,7 13,2 0 0 6 3 N 1026,8 0,3 0 0,0
19.11.2017 08:00:00 -0,3 -0,4 0,1 8,7 13,2 2 1 5 3 - 1026,3 0,3 0 0,0
19.11.2017 07:00:00 -0,2 -0,3 0,1 8,7 13,2 4 2 6 3 - 1025,9 0,3 0 0,0
19.11.2017 06:00:00 -0,5 -0,8 -0,2 8,8 13,2 4 2 5 3 - 1025,6 0,3 0 0,0
19.11.2017 05:00:00 -0,4 -0,7 -0,3 8,9 13,2 0 0 5 3 N 1025,6 0,3 0 0,0
19.11.2017 04:00:00 -0,5 -0,8 -1,7 8,9 13,3 4 2 7 4 O 1025,6 0,4 0 0,0
19.11.2017 03:00:00 -0,9 -1,2 -5,8 9,0 13,3 4 2 7 4 O 1025,6 0,1 0 0,0
19.11.2017 02:00:00 -1,5 -1,9 -6,7 9,1 13,3 4 2 5 3 O 1025,3 0,8 0 0,0
19.11.2017 01:00:00 -1,1 -1,5 -6,8 9,1 13,3 0 0 0 0 N 1025,5 4,0 0 0,0
19.11.2017 00:00:00 -0,9 -1,5 -6,4 9,2 13,3 0 0 4 2 N 1025,4 5 0 0,0
18.11.2017 23:00:00 -0,1 -0,7 -5,7 9,3 13,3 0 0 3 2 N 1025,6 4,6 0 0,0
18.11.2017 22:00:00 0,6 -0,1 -5,3 9,3 13,3 0 0 2 1 N 1025,6 2,5 0 0,0
18.11.2017 21:00:00 1,4 0,5 -4,6 9,4 13,3 0 0 4 2 N 1025,5 9 0 0,0
18.11.2017 20:00:00 2,6 1,6 -3,7 9,4 13,3 0 0 4 2 N 1025,3 10 0 0,0
18.11.2017 19:00:00 3,7 2,1 -3,2 9,3 13,3 0 0 5 3 N 1025,1 10 0 0,0
18.11.2017 18:00:00 7,1 3,7 -0,9 9,2 13,3 5 3 7 4 WZW 1024,7 31 9 0,0
18.11.2017 17:00:00 10,4 4,7 7,1 9,1 13,3 6 3 18 10 NNW 1024,4 47 60 0,0
18.11.2017 16:00:00 11,7 4,9 12,4 9,1 13,4 15 8 21 11 NNW 1024,3 10 60 0,0
18.11.2017 15:00:00 11,5 6,0 18,6 9,0 13,4 11 6 18 10 NW 1024,3 10 60 0,0
18.11.2017 14:00:00 9,8 8,9 18,8 9,0 13,4 8 4 11 6 WNW 1024,7 10 60 0,0
18.11.2017 13:00:00 6,2 6,2 8,7 8,9 13,4 5 3 9 5 - 1025,3 8 31 0,0
18.11.2017 12:00:00 4,0 3,9 6,8 8,9 13,4 5 3 10 6 NW 1026,2 0,3 0 0,0
18.11.2017 11:00:00 2,7 2,6 4,4 8,9 13,4 4 2 9 5 - 1026,1 0,3 0 0,0
18.11.2017 10:00:00 1,8 1,5 2,7 9,0 13,4 5 3 8 4 - 1025,9 0,2 0 0,0
18.11.2017 09:00:00 1,2 0,9 1,4 9,0 13,4 4 2 6 3 WNW 1025,8 0,1 0 0,0
18.11.2017 08:00:00 1,0 0,7 1,0 9,0 13,4 2 1 4 2 NW 1025,1 0,4 0 0,0
18.11.2017 07:00:00 1,0 0,7 0,1 9,1 13,5 2 1 4 2 W 1024,4 0,3 0 0,0
18.11.2017 06:00:00 1,1 0,8 -0,3 9,1 13,4 0 0 3 2 N 1024,2 0,1 0 0,0
18.11.2017 05:00:00 0,4 0,1 -3,6 9,2 13,5 0 0 5 3 N 1024,2 0,3 0 0,0
18.11.2017 04:00:00 -0,5 -0,9 -4,0 9,3 13,5 0 0 3 1 N 1024,2 0,5 0 0,0
18.11.2017 03:00:00 0,2 -0,2 -4,2 9,4 13,5 0 0 2 1 N 1024,0 0,1 0 0,0
18.11.2017 02:00:00 0,6 0,0 -4,1 9,4 13,5 0 0 3 1 N 1023,5 4,0 0 0,0
18.11.2017 01:00:00 1,5 0,9 -3,4 9,5 13,5 0 0 4 2 N 1023,7 2,8 0 0,0
18.11.2017 00:00:00 1,8 1,2 -3,0 9,5 13,5 0 0 3 2 N 1023,9 5 0 0,0
17.11.2017 23:00:00 2,4 1,7 -2,7 9,5 13,5 0 0 3 2 N 1023,7 5 0 0,0
17.11.2017 22:00:00 2,9 2,0 -2,7 9,5 13,5 2 1 3 2 - 1023,6 5 0 0,0
17.11.2017 21:00:00 3,3 2,1 -2,3 9,6 13,5 0 0 2 1 N 1023,4 5 0 0,0
17.11.2017 20:00:00 4,4 2,7 -1,7 9,5 13,5 0 0 4 2 N 1023,2 5 0 0,0
17.11.2017 19:00:00 6,3 3,3 -0,5 9,5 13,5 0 0 9 5 N 1023,1 10 0 0,0
17.11.2017 18:00:00 9,8 4,8 2,0 9,4 13,6 5 3 12 7 W 1022,7 10 7 0,0
17.11.2017 17:00:00 12,4 4,8 9,8 9,3 13,6 9 5 15 8 NW 1022,5 10 60 0,0
17.11.2017 16:00:00 14,3 6,6 15,1 9,2 13,6 8 4 12 7 WNW 1022,2 10 60 0,0
17.11.2017 15:00:00 13,7 7,0 21,3 9,1 13,6 8 4 14 7 WNW 1022,4 10 60 0,0
17.11.2017 14:00:00 11,9 7,6 20,5 9,1 13,6 5 3 10 5 - 1022,8 10 60 0,0
17.11.2017 13:00:00 8,1 8,0 7,4 9,1 13,6 2 1 9 5 NO 1023,7 8 60 0,0
17.11.2017 12:00:00 4,9 4,9 7,1 9,1 13,6 4 2 8 5 - 1024,4 6 25 0,0
17.11.2017 11:00:00 2,2 2,1 - - - 4 2 11 6 - 1025,0 0,5 - 0,0
17.11.2017 10:00:00 1,2 1,2 - - - 5 3 11 6 O 1024,8 0,4 - -
17.11.2017 09:00:00 0,2 0,2 0,3 9,1 13,6 8 4 10 5 OZO 1024,9 0,3 0 0,0
17.11.2017 08:00:00 0,1 0,0 -0,1 9,2 13,6 8 4 8 5 O 1024,5 0,6 0 0,0
17.11.2017 07:00:00 0,3 0,2 0,5 9,2 13,6 5 3 7 4 OZO 1024,3 2,4 0 0,0
17.11.2017 06:00:00 0,2 0,1 0,2 9,2 13,7 4 2 9 5 OZO 1024,3 0,6 0 0,0
17.11.2017 05:00:00 0,2 0,1 0,1 9,3 13,7 6 3 9 5 O 1024,2 0,3 0 0,0
17.11.2017 04:00:00 0,2 0,1 0,2 9,3 13,7 5 3 9 5 O 1024,2 0,8 0 0,0
17.11.2017 03:00:00 0,2 0,1 0,1 9,4 13,7 5 3 9 5 ZO 1024,3 0,5 0 0,0
17.11.2017 02:00:00 0,2 0,1 -1,1 9,4 13,7 4 2 8 4 OZO 1024,0 0,1 0 0,0
17.11.2017 01:00:00 -0,2 -0,3 -2,3 9,5 13,7 4 2 5 3 OZO 1024,4 0,3 0 0,0
17.11.2017 00:00:00 0,0 -0,1 -3,7 9,5 13,7 2 1 6 4 O 1024,5 0,3 0 0,0
16.11.2017 23:00:00 -0,3 -0,6 -4,3 9,5 13,7 5 3 7 4 O 1024,3 0,6 0 0,0
16.11.2017 22:00:00 0,5 0,2 -3,8 9,6 13,7 0 0 5 3 N 1024,3 0,3 0 0,0
16.11.2017 21:00:00 1,2 0,9 -2,9 9,6 13,8 2 1 5 3 ZO 1024,0 0,2 0 0,0
16.11.2017 20:00:00 2,0 1,6 - - - 4 2 9 5 ONO 1023,7 2,5 - 0,0
16.11.2017 19:00:00 2,9 2,5 -2,0 9,6 13,8 0 0 5 3 N 1023,8 1,3 0 0,0
16.11.2017 18:00:00 3,8 3,4 -0,3 9,6 13,8 4 2 8 4 ZO 1023,3 4,3 8 0,0
16.11.2017 17:00:00 4,7 4,3 4,5 9,5 13,8 8 4 11 6 O 1022,9 4,3 44 0,0
16.11.2017 16:00:00 5,2 5,1 8,0 9,5 13,8 8 4 9 5 O 1022,9 6 53 0,0
16.11.2017 15:00:00 4,7 4,6 8,6 9,4 13,8 5 3 10 5 OZO 1022,6 4,1 8 0,0
16.11.2017 14:00:00 3,6 3,5 7,5 9,4 13,8 3 2 6 4 O 1022,7 2,3 0 0,0
16.11.2017 13:00:00 2,8 2,7 6,5 9,5 13,8 4 2 13 7 - 1023,3 0,7 0 0,0
16.11.2017 12:00:00 2,0 1,9 4,7 9,5 13,8 5 3 12 7 - 1023,7 0,4 0 0,0
16.11.2017 11:00:00 0,9 0,8 3,2 9,5 13,8 5 3 12 6 ONO 1024,0 0,2 0 0,0
16.11.2017 10:00:00 0,5 0,4 1,4 9,5 13,9 8 4 14 7 O 1023,3 0,2 0 0,0
16.11.2017 09:00:00 0,1 0,0 0,4 9,6 13,9 8 4 11 6 O 1023,0 0,2 0 0,0
16.11.2017 08:00:00 -0,1 -0,2 0,4 9,6 13,9 5 3 10 6 ONO 1022,5 0,3 0 0,0

tt = temperatuur
td = dauwpunt
tt 5cm = temperatuur 5cm
tt -20cm = temperatuur -20cm
tt -100cm = temperatuur -100cm
ff = windsnelheid
fx = windstoten
dd = windrichting
ppp = luchtdruk
vv = zicht
sd = Zonneschijnduur
rr = neerslag

Weerstations in de omgeving